STARLINK-35471, 65864

Orbit data source: Space-Track

STARLINK-35471, 65864 is a payload satellite owned by SpaceX/Seattle (US) in LEO that was launched on Fri, 03 Oct 2025 UTC via an FALCON 9 launch vehicle from the Air Force Western Test Range (AFWTR). Payload-class satellites include a variety of spacecraft equipped with specific instruments for various scientific and technological missions. These include communications satellites like Starlink; space stations such as the ISS; scientific satellites like the Hubble; Earth observation satellites from companies like Planet Labs, Umbra, and HawkEye 360; GPS; miniature CubeSats for education and research; and military/defense satellites.

Loading next visibility...
Identifier
65864, 2025-223L
Orbit
LEO
Country
Flag of USUS
Related business
Manufacturer
SpaceX/Seattle
Mission
Operational spacecraft
Bus & Motor
STARLINK V2MO, Unknown motor
Mass
575 kg wet, ~530 kg dry
Launch date (UTC)
2025-10-03 (2 weeks ago)
Launch vehicle
FALCON 9
Launch site
Air Force Western Test Range (AFWTR)
Object type
Payload
Rocket body
Debris
Shape & HBR
Unknown
Radar Cross Section
RCS unknown

Expand to show TLE details & history
Last TLE update: 9 hours ago

TLE from 9 hours ago
0 STARLINK-35471
1 65864U 25223L   25291.08215242  .00522750  00000-0  37191-2 0  9990
2 65864  53.1537 240.7045 0011128 251.7253 108.2555 15.71731587  2312
Epoch: 2025-10-18T01:58Z
TLE epoch observation values (Epoch: 2025-10-18T01:58:17.969Z)
Latitude
-0.00001°
Longitude
-175.68866°
Altitude
357.217 km
Speed
7.695 km/s
True Right ascension
16h 02m 49s
True Declination
0° 00' 00"
Sunlit
Object was in daylight at epoch
Visualization orbit readout
Latitude
Unknown
Longitude
Unknown
Altitude
Unknown
Speed
Unknown
Apparent Right ascension
Unknown
Apparent Declination
Unknown
Sunlit
N/A
Visualization observer readout
Local Sidereal Time
05:50:59
Azimuth
Unknown
Elevation
Unknown
Doppler factor
Unknown
Orbital elements
Apogee altitude
361.702 km
Perigee altitude
346.718 km
Semi-major axis
6,732.347 km
Eccentricity
0.00111
Inclination
53.1537°
RAAN
240.7045°
Arg. of periapsis
251.7253°
True anomaly
108.37655°
Mean anomaly
108.2555°
Eccentric anomaly
108.31603°
Mean motion
3.9291 °/min
Orbital period
91.62 mins
BSTAR
0.0037191
Loading maneuver chart data...
Computing Atmospheric mass density...
Loading historical data...
Loading historical data...
Loading historical data...
Loading historical data...
Loading historical data...
Loading historical data...
Loading historical data...

Documentation

Showing up to 5 results
|